Home   Weather   Willemstad   Past weeks

Flag for Curaçao Past Weather in Willemstad, Curaçao — Yesterday and Last 2 Weeks

Now
88 °F

Scattered clouds.


Feels Like: 98 °F
Forecast: 80 / 86 °F
Wind: 16 mph from East

Location: Hato Airport - Curacao

Current Time: Apr 26, 2017 at 1:45:42 pm

Latest Report: Apr 26, 2017 at 12:00 pm


Visibility: N/A

Pressure: 29.89 "Hg

Humidity: 66%

Dew Point: 75 °F

Location of WillemstadLocation

Past Weather in Willemstad — Graph

°F

Willemstad Temperature Yesterday

Maximum temperature yesterday: 88 °F (at 10:00 am)
Minimum temperature yesterday: 81 °F (at 12:00 am)
Average temperature yesterday: 83 °F

High & Low Weather Summary for the Past Weeks

 TemperatureHumidityPressure
High91 °F (Apr 23, 2:00 pm)94% (Apr 16, 10:00 am)29.95 "Hg (Apr 16, 10:00 am)
Low77 °F (Apr 21, 5:00 am)55% (Apr 11, 3:00 pm)29.74 "Hg (Apr 23, 5:00 pm)
Average83 °F77%29.87 "Hg
* Reported Apr 11 12:00 pm — Apr 26 12:00 pm, Willemstad, Weather by CustomWeather, © 2017

Note: Actual official high and low records may vary slightly from our data, if they occured in-between our weather recording intervals... More about our weather records

Advertising

Willemstad Weather History for the Previous 24 Hours

Scroll right to see more
 ConditionsComfort  
Time TempWeatherWind HumidityBarometerVisibility
12:00 pm
Wed, Apr 26
88 °FScattered clouds.16 mph66%29.89 "HgN/A
11:00 am88 °FScattered clouds.15 mph66%29.92 "HgN/A
10:00 am86 °FScattered clouds.17 mph70%29.92 "HgN/A
9:00 am84 °FScattered clouds.15 mph74%29.89 "HgN/A
8:00 am84 °FScattered clouds.15 mph74%29.89 "HgN/A
7:00 am81 °FPassing clouds.15 mph84%29.89 "HgN/A
6:00 am81 °FPassing clouds.14 mph84%29.86 "HgN/A
5:00 am81 °FPassing clouds.10 mph79%29.83 "HgN/A
2:00 am81 °FPassing clouds.13 mph84%29.86 "HgN/A
1:00 am81 °FPassing clouds.8 mph84%29.86 "HgN/A
12:00 am81 °FPassing clouds.12 mph84%29.86 "HgN/A
10:00 pm
Tue, Apr 25
81 °FClear.13 mph84%29.86 "Hg10 mi
9:00 pm81 °FClear.14 mph84%29.83 "Hg10 mi
8:00 pm81 °FPassing clouds.14 mph84%29.83 "HgN/A
7:00 pm82 °FClear.12 mph79%29.80 "Hg10 mi
6:00 pm82 °FSunny.14 mph79%29.77 "Hg10 mi
5:00 pm84 °FSunny.15 mph74%29.77 "Hg10 mi
4:00 pm86 °FPassing clouds.14 mph75%29.80 "HgN/A
3:00 pm88 °FPassing clouds.14 mph66%29.80 "HgN/A
2:00 pm88 °FPassing clouds.16 mph66%29.83 "HgN/A
1:00 pm88 °FScattered clouds.15 mph70%29.86 "HgN/A
Weather by CustomWeather, © 2017

See weather overviewHow to use our weather pages